User: anonymous   Login
Location: Ladysmith
(45.4630°N, 91.1040°W)
Time: 10:03:36
(UTC-06:00)
Language:

SO-67 - Orbit

View from above orbital plane
View from above orbital plane
View from above satellite
View from above satellite

Ground track
Ground track

The orbit data is extracted from the following two-line orbital elements,

1 35870U 09049F   15064.11231976  .00016081  00000-0  41661-3 0  9998
2 35870 097.1433 082.8350 0001321 129.5348 315.9500 15.39112042304094
Epoch (UTC): 05 March 2015 02:41:44
Eccentricity: 0.0001321
inclination: 97.1433°
perigee height: 448 km
apogee height: 449 km
right ascension of ascending node: 82.8350°
argument of perigee: 129.5348°
revolutions per day: 15.39112042
mean anomaly at epoch: 315.9500°
orbit number at epoch: 30409

The dashed part of the orbit path shows where the satellite is in the earth's shadow,  

DLR